Regional Weather Roundup
Issued by NWS

Home | Current Version | Previous Version | Text Only | Print | Product List | Glossary On
Versions: 1 2 3 4 5 6 7 8 9 10 11 12 13 14 15 16 17 18 19 20 21 22 23 24 25 26 27 28 29 30 31 32 33 34 35 36 37 38 39 40 41 42 43 44 45 46 47 48 49 50
563
ASUS45 KABQ 292010
RWRNM
NEW MEXICO REGIONAL WEATHER ROUNDUP
NATIONAL WEATHER SERVICE ALBUQUERQUE NM
200 PM MDT THU SEP 29 2016

NOTE: "FAIR" MEANS FEW OR NO CLOUDS BELOW 12,000 FEET AGL WITH NO
       SIGNIFICANT WEATHER OR OBSTRUCTIONS TO VISION.

      THIS PRODUCT IS RELEASED AS TWO VERSIONS.  ONE VERSION NEAR
      THE TOP OF THE HOUR CONTAINING PRELIMINARY DATA FROM ALBUQUERQUE
      AND OTHER STATIONS.  A FINAL VERSION WITH ADDITIONAL DATA IS
      ISSUED ABOUT 10 MINUTES AFTER THE HOUR.

NMZ501-503-504-510>518-292100-
NORTHWEST PLATEAU/NORTHCENTRAL MOUNTAINS

CITY           SKY/WX    TMP DP  RH WIND       PRES   REMARKS
FARMINGTON     LGT RAIN  60  51  72 E10       30.45R
LOS ALAMOS     FAIR      71  33  25 S7G18     30.49F
SANTA FE       FAIR      75  35  23 S12G22    30.43F
TAOS           FAIR      70  30  23 CALM      30.48F

$$
NMZ402-403-502-505>509-292100-
WESTCENTRAL MOUNTAINS/SOUTHWEST MOUNTAINS

CITY           SKY/WX    TMP DP  RH WIND       PRES   REMARKS
GALLUP         LGT RAIN  57  52  83 SW3       30.49S
SILVER CITY    PTSUNNY   75  55  50 SE22      30.36F

$$
NMZ407-409-411-412-292100-
SOUTHERN DESERTS

CITY           SKY/WX    TMP DP  RH WIND       PRES   REMARKS
DEMING         PTSUNNY   82  56  40 SE16G25   30.28F
LAS CRUCES     FAIR      80  46  30 E14G20    30.31F
HOLLOMAN AFB   FAIR      83  42  23 S9        30.27F
ALAMOGORDO     FAIR      81  43  26 SE5       30.30F
T OR C         FAIR      79  52  38 S9        30.31F

$$
NMZ519>523-292100-
CENTRAL VALLEYS/CENTRAL HIGHLANDS

CITY           SKY/WX    TMP DP  RH WIND       PRES   REMARKS
ALBUQUERQUE    PTSUNNY   78  44  29 W6        30.36F
DOUBLE EAGLE   PTSUNNY   75  41  29 CALM      30.40F
MORIARTY ARPT  FAIR      76  32  20 S10G20    30.44F
CLINES CORNERS FAIR      72  38  29 SE16      30.49F
BELEN          FAIR      81  40  23 SE6       30.35F
SOCORRO        FAIR      83  42  23 S7G17     30.32F

$$
NMZ524>526-539-540-292100-
SOUTHCENTRAL MOUNTAINS

CITY           SKY/WX    TMP DP  RH WIND       PRES   REMARKS
RUIDOSO        FAIR      68  41  37 SE15G22   30.49F

$$
NMZ527>531-292100-
NORTHEAST HIGHLANDS/NORTHEAST PLAINS

CITY           SKY/WX    TMP DP  RH WIND       PRES   REMARKS
LAS VEGAS      FAIR      70  36  28 S8G18     30.49F
RATON          FAIR      74  37  26 S18       30.43F
CLAYTON        FAIR      72  48  42 S15       30.39F

$$
NMZ532>537-292100-
EASTCENTRAL PLAINS

CITY           SKY/WX    TMP DP  RH WIND       PRES   REMARKS
TUCUMCARI      FAIR      84  40  21 S12       30.34F
CANNON AFB     NOT AVBL
CLOVIS AIRPORT FAIR      73  46  38 SE6       30.38F

$$
NMZ028-029-538-292100-
SOUTHEAST PLAINS

CITY           SKY/WX    TMP DP  RH WIND       PRES   REMARKS
ROSWELL        FAIR      80  43  26 VRB3      30.34F
ARTESIA        FAIR      77  46  33 VRB6      30.34F
CARLSBAD       FAIR      78  47  33 SE9       30.31F
HOBBS          SUNNY     73  48  40 E12       30.37F


$$




USA.gov is the U.S. government's official web portal to all federal, state and local government web resources and services.